Tracking 18980 objects as of 19-Feb-2018
HD Live streaming from Space Station
objects crossing your sky now

FENGYUN 1C DEB

Track FENGYUN 1C DEB now!
10-day predictions


NORAD ID: 38793
Int'l Code: 1999-025EUH
Perigee: 681.3 km
Apogee: 841.3 km
Inclination: 98.7 °
Period: 99.9 minutes
Semi major axis: 7132 km
RCS: 0.0014 m2 (small)
Launch date: May 10, 1999
Source: People's Republic of China (PRC)
Launch site: Taiyaun Space Center, China (TSC)

Note: This is SATELLITE DEBRIS
aabbcc
Your satellite tracking list
Your tracking list is empty




NASA's NSSDC Master Catalog

Two Line Element Set (TLE):
1 38793U 99025EUH 18050.08814571  .00001099  00000-0  32975-3 0  9991
2 38793  98.7178 102.6676 0112171 265.2639 124.0822 14.41311773323195
Source of the keplerian elements: AFSPC